Location: Fontevrault
(47.1823°N, 0.0493°E)
Time: 16:46:28
(UTC+00:00)

SL-8 R/B - Pass Details

Date: 16 June 2021
Orbit: 656 x 667 km, 48.4° (Epoch: 30 July)

Event Time Altitude Azimuth Distance (km) Brightness Sun altitude
Rises 21:30:36 0° 285° (WNW) 2,993 7.9 -11.8°
Reaches altitude 10° 21:32:57 10° 284° (WNW) 2,078 7.0 -12.0°
Maximum altitude 21:37:45 80° 199° (SSW) 672 3.6 -12.4°
Enters shadow 21:41:58 13° 112° (ESE) 1,854 5.5 -12.8°
